Wind_Speed
38 36 34 33 26 18 18 15 19 17 17 15 23 24 29 26 28 30 30 29 28 30 39 44 45 43 43 49 57 63 63 86 94 94 92 93 93 78 85 85 77 83 78 71
37 34 34 28 21 9 6 9 16 17 16 12 8 19 19 18 18 20 23 27 25 26 30 34 38 39 40 48 51 55 60 69 90 95 95 95 86 77 77 71 85 81 78 75
34 31 32 28 22 11 9 5 10 9 8 11 11 7 14 18 21 22 22 22 18 18 20 24 27 30 36 40 44 46 57 60 75 93 99 99 99 77 70 76 88 76 75 79
30 29 30 31 23 15 15 16 15 14 13 19 17 17 20 23 23 24 23 22 21 20 21 23 22 27 33 36 33 41 48 51 62 84 96 100 95 83 70 58 86 81 84 80
30 29 26 31 26 24 24 17 22 22 23 27 29 29 30 30 28 29 25 25 25 28 25 25 24 21 23 28 30 36 42 49 53 70 86 86 92 88 84 76 61 71 74 84
30 32 28 27 24 23 26 23 23 21 24 26 25 22 21 26 28 27 30 30 30 26 29 28 28 28 22 23 29 30 40 44 53 56 63 76 84 88 86 87 93 72 60 79
31 32 31 28 30 28 30 27 24 25 26 27 32 36 30 29 37 37 33 28 28 26 29 29 30 29 30 21 21 24 31 39 46 52 56 56 70 88 91 89 88 81 76 76
34 31 30 32 31 34 31 28 24 25 25 25 25 28 33 32 34 37 35 37 32 32 34 27 29 26 28 31 20 19 21 33 39 44 53 56 58 66 90 94 86 81 77 75
33 30 27 31 33 34 35 32 32 26 24 24 23 25 24 28 30 29 31 29 33 30 32 29 29 28 25 29 30 23 17 21 32 46 39 40 50 58 68 84 85 83 79 79
35 26 27 31 30 31 33 32 33 26 26 27 28 29 31 29 29 28 29 28 29 28 31 32 30 30 26 26 26 30 30 21 20 33 40 47 40 41 55 70 77 86 85 85
33 27 32 28 32 34 35 31 29 26 28 32 33 29 30 30 29 28 29 29 29 30 30 32 34 34 33 31 28 27 30 31 26 22 18 29 37 45 45 50 68 79 81 85
31 29 31 27 32 35 34 30 24 26 32 30 28 29 29 30 31 31 30 29 28 29 31 33 33 35 39 38 35 33 31 28 30 31 29 23 24 30 37 51 53 57 72 80
27 30 31 30 32 33 33 31 28 29 26 28 29 32 32 34 34 34 34 31 29 27 28 33 37 36 35 41 44 40 38 37 33 32 31 30 29 26 23 37 49 58 56 70
34 32 28 32 31 32 31 29 27 29 29 29 30 32 33 32 31 34 33 32 32 32 31 30 32 36 39 38 43 47 46 43 41 39 35 32 32 33 31 25 32 45 56 63
38 35 33 33 33 29 30 29 26 27 29 28 31 32 32 33 35 37 38 38 36 36 37 37 36 36 36 36 41 42 45 53 52 47 44 41 38 37 35 33 32 29 41 59
36 34 34 33 34 32 31 27 28 30 29 28 31 32 34 36 36 35 36 35 35 37 40 41 42 42 41 39 39 39 41 45 53 55 53 50 47 44 43 39 36 37 36 32
35 32 35 36 34 32 30 24 25 29 29 29 30 32 33 31 30 29 29 30 32 35 36 36 37 38 40 42 44 41 40 41 42 49 54 56 59 60 51 48 45 43 42 41
34 32 34 33 29 28 23 25 28 30 29 29 32 31 27 25 27 28 29 30 32 36 38 35 33 31 31 31 31 32 35 40 42 42 43 47 52 56 59 59 57 53 50 48
32 30 27 27 27 22 24 28 32 33 33 35 35 33 30 29 30 30 32 34 37 37 37 35 34 33 33 32 32 32 33 35 35 35 43 45 45 46 53 57 59 59 59 57
17 21 28 28 30 27 32 35 36 34 35 37 35 34 35 36 35 37 38 39 40 39 39 34 33 32 31 31 32 33 34 33 34 36 38 39 45 47 46 47 53 59 62 64
18 31 34 38 37 35 35 35 33 34 35 36 37 38 40 42 43 43 43 41 42 41 40 39 34 32 30 31 32 32 32 34 35 35 36 37 39 42 47 48 44 43 48 56
35 32 32 33 37 32 33 35 36 36 36 37 39 41 41 43 44 44 45 43 41 41 41 40 36 34 33 32 32 32 34 33 34 35 35 35 35 37 41 44 44 41 40 41
40 42 40 34 33 35 38 39 40 41 44 43 43 45 48 48 45 45 42 42 41 41 41 41 38 35 34 33 32 33 33 33 32 30 30 31 31 32 33 36 40 39 37 38
44 47 46 46 49 51 49 51 54 53 52 50 51 55 56 50 44 44 42 40 40 40 40 40 37 34 34 33 32 33 32 29 27 25 22 21 22 22 21 24 31 35 34 33
47 48 49 50 50 44 47 52 55 56 57 54 54 57 53 51 46 43 39 39 39 39 39 39 36 32 33 33 31 32 29 26 24 22 21 20 20 20 21 25 30 34 36 38
53 49 51 53 54 56 57 53 54 53 53 53 58 61 58 55 49 42 39 37 37 37 37 37 34 30 31 30 30 30 27 25 23 23 21 20 23 25 25 25 27 29 32 35
72 72 71 69 64 64 64 64 61 60 60 59 65 66 60 48 41 38 36 37 37 37 36 35 31 28 29 28 28 28 26 25 23 22 22 23 26 26 24 25 27 30 31 28
Wind_Direction
337 337 341 340 337 328 326 332 353 0 338 281 258 249 257 275 272 273 272 268 267 267 269 270 268 265 258 254 252 246 236 221 223 229 232 236 238 235 239 242 245 233 229 220
333 336 336 339 332 335 15 20 2 346 359 346 300 252 256 257 277 275 262 276 260 254 256 260 256 265 270 266 255 245 238 229 222 224 228 234 237 232 234 239 238 240 225 224
331 337 330 329 327 290 275 314 319 329 332 329 331 281 256 288 293 286 292 271 269 276 280 279 267 262 262 258 257 248 237 233 226 225 226 229 237 231 236 234 233 238 231 229
329 335 326 323 319 300 276 281 288 294 273 294 302 300 293 295 285 294 306 274 285 290 294 298 297 279 265 274 262 253 243 239 230 224 226 228 231 230 228 232 233 236 235 228
326 329 328 323 317 305 299 288 288 294 285 279 288 295 295 296 294 291 298 305 298 288 292 293 298 302 294 284 285 263 252 241 235 232 227 229 228 227 225 230 226 228 230 236
319 325 333 319 317 304 302 304 299 299 293 282 285 289 287 288 297 298 298 296 297 286 284 290 297 302 309 295 283 278 250 248 239 236 235 236 231 227 230 232 225 225 234 225
317 323 327 316 319 312 304 308 305 298 292 291 293 289 278 283 291 294 294 294 291 282 287 283 292 300 302 299 283 282 264 251 245 241 240 241 238 230 229 231 238 238 244 237
314 319 322 315 313 314 313 309 303 296 294 295 290 295 298 300 284 285 289 292 290 280 286 290 287 296 303 295 295 289 278 260 251 247 246 246 245 240 230 234 236 233 235 236
307 317 313 308 309 312 312 304 300 287 284 281 303 303 309 317 306 293 287 283 284 287 287 282 283 290 290 297 297 300 297 273 260 254 257 256 248 247 240 231 233 233 232 233
302 313 302 299 304 304 304 305 299 288 290 279 298 300 301 311 319 313 295 287 278 275 283 283 273 278 289 288 294 301 305 292 275 258 254 256 260 258 247 234 234 233 234 232
308 304 299 302 295 293 298 302 298 286 284 287 296 292 299 304 309 314 316 302 285 273 268 272 276 270 280 286 285 286 292 298 294 283 276 260 265 261 248 245 242 240 238 236
303 291 298 296 290 294 296 299 291 279 273 282 291 297 300 302 303 304 303 308 305 286 269 263 267 276 272 275 275 278 281 284 291 294 295 278 266 259 253 248 248 241 244 239
301 296 299 297 291 290 294 294 288 274 279 286 287 291 298 299 302 302 297 298 298 297 286 274 267 262 268 273 270 271 274 279 281 280 284 287 286 275 266 252 247 244 244 244
300 291 292 290 290 291 294 290 282 281 285 288 293 298 297 300 299 304 301 298 292 290 290 287 280 276 268 263 265 271 270 273 273 274 272 275 281 285 280 261 253 250 250 246
294 294 293 289 291 290 285 287 279 279 284 290 296 300 302 303 301 298 296 295 294 292 286 283 281 281 281 277 267 259 262 263 267 267 268 269 269 274 276 276 271 259 250 244
289 291 289 289 289 286 283 285 271 275 285 297 300 304 310 311 308 304 301 296 293 292 291 287 283 279 277 277 276 275 271 260 260 264 263 265 265 268 267 268 270 272 268 251
290 288 285 288 290 286 287 275 269 276 284 292 302 308 311 312 313 314 311 307 304 300 300 299 296 290 284 279 275 274 274 275 272 266 263 260 260 263 261 262 262 264 265 267
292 287 282 281 280 283 272 262 267 278 286 297 303 304 303 309 316 321 323 324 323 318 305 300 298 297 297 295 293 289 283 274 269 271 271 267 261 258 257 258 258 259 259 260
277 273 270 273 282 271 262 275 284 288 290 293 299 299 296 300 305 310 314 316 317 320 317 299 294 295 295 295 295 292 287 282 279 273 265 267 269 266 258 256 257 256 255 254
276 260 266 265 273 275 272 275 286 291 293 295 300 299 296 296 298 302 307 311 313 315 320 308 293 292 293 297 298 296 292 288 283 278 275 269 262 262 264 263 257 254 254 254
230 250 253 275 282 277 279 285 284 287 287 291 296 299 305 301 292 293 297 303 307 312 316 316 300 294 294 299 300 299 295 293 289 285 280 276 268 262 256 257 262 264 260 255
251 257 268 279 278 278 271 271 276 280 285 291 296 299 303 301 298 295 295 298 303 308 311 315 304 296 296 301 302 302 302 298 294 292 287 281 274 266 260 256 254 259 263 264
265 262 264 270 269 271 278 280 282 285 292 293 300 303 304 304 298 295 293 295 299 303 308 311 307 295 296 301 304 306 304 302 300 296 292 289 286 278 265 258 252 256 261 264
254 268 269 272 273 274 282 288 291 297 299 300 306 307 303 301 298 296 292 293 296 301 305 309 305 294 294 300 304 307 306 303 299 297 294 296 295 289 278 261 252 255 262 263
266 270 270 274 270 280 287 287 290 293 296 296 297 301 301 299 295 293 290 289 293 298 303 308 303 291 293 299 305 307 304 299 296 297 296 297 298 292 280 267 262 263 266 267
256 263 269 269 268 271 273 275 280 284 285 289 292 294 297 296 291 290 288 288 292 296 302 307 299 287 292 299 306 308 303 297 288 290 292 297 299 295 288 282 280 278 274 271
271 272 275 276 278 270 276 280 280 281 283 285 288 288 292 287 285 286 285 288 291 295 301 305 294 285 292 298 304 306 302 298 288 286 297 298 302 302 297 296 292 288 286 285
Height
5649 5642 5635 5628 5622 5615 5611 5607 5603 5599 5594 5593 5596 5597 5597 5600 5598 5597 5596 5596 5597 5598 5598 5598 5597 5597 5595 5596 5598 5601 5607 5614 5619 5629 5641 5647 5654 5672 5677 5686 5698 5704 5715 5723
5642 5637 5630 5625 5619 5615 5612 5606 5603 5598 5595 5591 5590 5590 5592 5593 5593 5592 5591 5589 5590 5590 5588 5588 5587 5586 5583 5580 5581 5584 5588 5596 5603 5610 5621 5627 5638 5659 5669 5676 5683 5687 5701 5708
5638 5634 5627 5623 5617 5613 5608 5604 5602 5599 5595 5593 5591 5588 5588 5589 5587 5586 5584 5583 5583 5582 5580 5579 5576 5575 5575 5570 5568 5568 5573 5579 5586 5594 5601 5611 5617 5643 5653 5664 5672 5677 5685 5688
5635 5630 5624 5618 5612 5608 5606 5602 5599 5597 5594 5590 5588 5586 5586 5585 5583 5580 5578 5577 5576 5576 5574 5571 5569 5567 5564 5561 5558 5557 5563 5565 5571 5577 5584 5591 5605 5623 5638 5640 5647 5657 5667 5670
5629 5624 5622 5612 5607 5603 5599 5599 5595 5593 5591 5587 5584 5582 5579 5577 5576 5574 5572 5572 5570 5569 5568 5566 5563 5560 5557 5553 5550 5549 5553 5555 5558 5563 5571 5576 5589 5601 5613 5620 5627 5635 5647 5652
5622 5618 5614 5608 5604 5599 5594 5592 5589 5586 5584 5582 5579 5577 5575 5572 5569 5568 5566 5566 5564 5562 5561 5559 5557 5554 5551 5549 5546 5542 5543 5545 5548 5552 5559 5567 5574 5583 5593 5604 5609 5612 5620 5630
5615 5610 5608 5601 5598 5593 5589 5589 5583 5580 5578 5575 5571 5568 5568 5566 5563 5560 5558 5559 5557 5555 5554 5553 5550 5548 5546 5544 5541 5537 5534 5535 5538 5542 5547 5554 5560 5569 5575 5583 5589 5601 5610 5617
5607 5603 5599 5593 5589 5585 5584 5579 5576 5574 5571 5568 5564 5562 5559 5557 5554 5551 5551 5549 5549 5550 5548 5546 5544 5542 5539 5539 5536 5532 5529 5529 5530 5533 5537 5543 5547 5552 5561 5567 5576 5585 5593 5599
5601 5598 5591 5586 5582 5578 5574 5571 5567 5567 5566 5562 5560 5557 5554 5550 5545 5542 5541 5540 5539 5540 5539 5539 5537 5535 5535 5532 5530 5527 5524 5522 5523 5525 5527 5529 5535 5538 5543 5552 5562 5570 5575 5582
5591 5592 5586 5581 5577 5571 5567 5564 5561 5560 5558 5555 5555 5552 5547 5543 5539 5534 5532 5531 5531 5530 5529 5530 5530 5528 5527 5526 5524 5521 5518 5517 5515 5516 5516 5520 5520 5524 5529 5537 5544 5552 5559 5563
5584 5582 5576 5574 5568 5563 5561 5557 5555 5554 5551 5548 5549 5545 5540 5536 5533 5529 5526 5523 5521 5520 5520 5518 5519 5519 5518 5517 5517 5516 5514 5513 5510 5508 5508 5509 5511 5513 5516 5521 5527 5534 5541 5548
5576 5571 5568 5567 5560 5556 5553 5551 5548 5546 5543 5543 5541 5537 5534 5530 5526 5523 5520 5516 5513 5510 5509 5509 5508 5508 5508 5508 5507 5507 5507 5506 5503 5503 5501 5501 5503 5503 5503 5507 5514 5518 5524 5531
5568 5563 5559 5556 5552 5548 5545 5543 5540 5538 5538 5535 5533 5530 5527 5523 5519 5516 5512 5510 5506 5503 5501 5499 5497 5497 5497 5496 5496 5496 5496 5496 5496 5495 5495 5494 5494 5495 5495 5495 5497 5502 5507 5512
5556 5553 5552 5545 5543 5539 5537 5535 5532 5531 5529 5526 5525 5522 5519 5516 5512 5507 5504 5500 5498 5495 5492 5490 5487 5485 5485 5484 5484 5483 5483 5483 5484 5485 5485 5485 5485 5485 5486 5487 5486 5488 5491 5496
5543 5541 5540 5537 5534 5532 5529 5526 5525 5522 5520 5519 5517 5514 5510 5506 5503 5498 5494 5491 5488 5485 5482 5479 5477 5474 5472 5471 5471 5471 5471 5471 5470 5472 5472 5473 5474 5475 5475 5476 5477 5478 5479 5481
5534 5531 5528 5526 5523 5522 5520 5517 5516 5514 5512 5510 5508 5505 5501 5497 5492 5488 5484 5480 5478 5474 5470 5467 5464 5463 5461 5460 5458 5457 5456 5455 5455 5455 5457 5458 5459 5462 5464 5464 5465 5466 5467 5468
5524 5522 5517 5515 5515 5512 5510 5509 5508 5506 5505 5503 5499 5496 5493 5489 5484 5480 5476 5472 5469 5464 5460 5457 5452 5449 5447 5446 5446 5445 5444 5442 5440 5439 5439 5441 5443 5446 5448 5450 5451 5452 5454 5455
5512 5511 5508 5505 5504 5503 5501 5500 5499 5498 5496 5494 5491 5488 5485 5482 5478 5473 5469 5465 5460 5456 5450 5447 5443 5440 5436 5434 5433 5431 5429 5428 5427 5426 5425 5423 5425 5426 5429 5431 5434 5437 5439 5441
5499 5499 5497 5496 5495 5494 5493 5493 5491 5489 5487 5485 5482 5480 5477 5473 5470 5466 5462 5458 5452 5448 5443 5437 5434 5431 5428 5425 5422 5420 5418 5416 5415 5413 5412 5411 5409 5408 5409 5411 5414 5417 5421 5425
5490 5490 5488 5488 5487 5487 5485 5483 5481 5479 5477 5475 5472 5470 5467 5464 5461 5458 5453 5448 5443 5438 5434 5429 5426 5423 5419 5416 5413 5409 5406 5404 5402 5400 5399 5398 5397 5397 5396 5395 5396 5398 5400 5403
5481 5482 5478 5477 5475 5475 5475 5473 5471 5470 5467 5465 5462 5460 5457 5454 5451 5447 5444 5440 5435 5430 5424 5419 5415 5414 5411 5407 5403 5400 5396 5393 5390 5387 5385 5383 5382 5382 5383 5384 5383 5382 5384 5386
5470 5470 5470 5467 5466 5466 5465 5463 5462 5460 5457 5454 5451 5449 5446 5443 5439 5436 5432 5429 5426 5420 5415 5410 5405 5402 5400 5397 5393 5389 5385 5381 5378 5374 5371 5368 5367 5366 5367 5368 5370 5373 5373 5372
5460 5460 5458 5457 5456 5455 5454 5452 5451 5448 5446 5442 5439 5436 5434 5431 5427 5424 5422 5418 5414 5410 5405 5401 5395 5392 5389 5386 5383 5379 5374 5370 5366 5362 5359 5356 5353 5351 5351 5353 5356 5359 5361 5361
5450 5448 5446 5445 5444 5444 5441 5438 5436 5435 5433 5430 5426 5423 5421 5418 5416 5410 5408 5406 5403 5399 5395 5391 5386 5382 5379 5376 5373 5369 5364 5361 5357 5355 5352 5349 5347 5344 5343 5344 5346 5348 5349 5349
5437 5435 5434 5432 5431 5430 5428 5426 5425 5422 5419 5417 5415 5411 5408 5404 5401 5399 5396 5394 5392 5389 5385 5380 5376 5372 5370 5367 5364 5360 5356 5352 5350 5348 5346 5344 5342 5340 5339 5338 5338 5338 5338 5337
5422 5421 5421 5419 5417 5415 5412 5410 5410 5408 5405 5404 5401 5397 5395 5391 5388 5385 5383 5381 5379 5377 5374 5370 5366 5363 5361 5358 5355 5351 5347 5344 5342 5341 5339 5337 5335 5333 5331 5329 5328 5327 5325 5323
5402 5401 5400 5400 5400 5397 5395 5394 5393 5393 5390 5388 5386 5381 5380 5377 5375 5373 5371 5369 5367 5366 5363 5359 5356 5354 5353 5350 5347 5343 5339 5336 5334 5333 5332 5329 5327 5324 5322 5319 5317 5314 5311 5309